Vorticity
2 4 4 7 7 7 8 7 7 7 7 7 6 6 7 7 7 8 8 8 8 7 8 8 7 8 8 8 8 7 7 7
3 4 4 6 8 8 7 7 7 7 7 7 8 7 7 7 8 7 7 7 8 9 8 7 8 8 8 8 8 8 7 7
3 5 7 7 8 8 8 9 8 9 8 7 7 8 8 8 9 8 8 8 8 7 8 8 8 8 8 8 8 8 8 7
6 9 7 8 8 8 8 7 6 6 6 5 5 5 5 6 7 9 9 9 9 8 8 8 8 9 8 8 8 9 8 8
8 9 8 8 8 9 9 8 6 6 6 5 4 4 5 6 8 9 9 9 10 10 9 9 8 9 9 8 8 8 9 9
12 8 9 12 11 8 6 5 4 5 5 4 3 3 4 4 5 8 9 9 8 9 9 9 10 9 9 9 8 8 8 8
7 9 10 8 6 6 6 6 6 5 4 2 2 4 4 3 5 7 9 9 8 7 7 7 8 8 9 8 9 8 8 8
9 12 8 4 1 1 2 2 2 2 2 3 4 4 4 4 5 8 8 9 9 8 8 8 8 8 8 8 8 8 8 8
9 3 -0 1 -0 -1 0 1 1 1 1 3 5 5 4 5 7 8 7 7 7 8 9 9 8 8 8 9 9 9 9 8
0 3 2 1 2 0 -0 0 1 1 -0 0 6 4 5 8 9 7 7 7 7 7 8 8 8 9 8 9 9 9 9 10
3 -2 -2 -1 -1 0 1 1 -0 1 2 -1 6 5 9 8 7 7 7 7 8 9 9 9 9 9 9 8 8 9 9 9
7 2 -3 4 2 1 2 2 -0 1 3 2 5 7 9 8 9 9 9 9 9 9 8 8 7 8 8 8 7 7 8 10
2 10 7 5 4 0 0 -0 0 4 -2 6 7 9 8 9 10 10 10 9 8 8 9 9 10 12 11 12 11 10 8 7
19 7 3 3 4 2 -1 -1 3 -2 8 9 10 10 11 11 11 11 11 10 10 10 10 10 12 12 12 14 14 20 17 13
14 13 12 8 6 2 2 -0 4 8 11 9 10 11 11 10 11 10 10 10 10 10 11 11 12 12 12 10 11 10 11 17
18 8 8 6 4 -1 -1 10 8 11 10 10 11 12 11 11 11 12 12 12 10 11 11 9 9 9 10 10 8 8 7 10
7 6 6 0 3 9 9 11 9 9 10 11 11 11 13 13 12 11 10 9 10 10 10 9 9 8 8 7 8 9 7 7
3 3 7 9 10 10 9 11 12 12 12 12 12 12 12 11 12 13 11 10 9 10 9 8 8 8 7 8 7 8 11 10
9 10 11 9 11 12 13 12 12 13 13 12 11 11 12 12 11 11 12 11 7 7 8 10 9 8 9 10 9 10 10 12
10 9 12 13 13 13 12 12 11 11 10 10 10 9 9 9 11 12 6 -3 11 31 18 17 12 9 8 7 6 8 11 12
Height
3130 3129 3128 3128 3127 3127 3126 3125 3124 3124 3123 3123 3122 3121 3121 3120 3119 3118 3118 3118 3118 3118 3118 3117 3118 3118 3119 3120 3121 3123 3124 3125
3126 3126 3126 3125 3125 3124 3124 3123 3123 3122 3121 3120 3119 3119 3118 3116 3115 3114 3114 3113 3113 3114 3113 3113 3113 3114 3115 3116 3117 3118 3120 3121
3123 3122 3122 3122 3121 3121 3121 3120 3120 3119 3118 3118 3117 3116 3115 3114 3112 3111 3110 3109 3109 3109 3109 3108 3108 3109 3110 3111 3112 3113 3115 3116
3120 3119 3119 3118 3118 3118 3118 3118 3117 3117 3116 3116 3115 3114 3113 3111 3110 3108 3106 3105 3104 3104 3104 3103 3103 3104 3105 3106 3106 3108 3109 3111
3117 3116 3116 3116 3116 3116 3116 3116 3116 3115 3114 3113 3112 3110 3109 3107 3105 3103 3101 3100 3099 3099 3098 3098 3098 3098 3099 3100 3101 3102 3104 3105
3114 3113 3113 3113 3113 3114 3114 3114 3113 3112 3111 3110 3108 3107 3105 3103 3101 3098 3096 3094 3093 3093 3093 3093 3092 3093 3093 3094 3095 3096 3098 3100
3111 3111 3111 3111 3112 3112 3112 3111 3110 3108 3107 3105 3103 3101 3099 3097 3095 3093 3091 3089 3088 3087 3086 3086 3086 3086 3087 3087 3089 3090 3092 3093
3109 3109 3109 3110 3109 3110 3109 3108 3107 3104 3103 3100 3098 3096 3093 3091 3089 3087 3085 3083 3082 3080 3080 3079 3079 3080 3080 3080 3082 3084 3085 3086
3107 3108 3108 3108 3107 3107 3106 3104 3102 3100 3098 3095 3093 3090 3087 3084 3081 3079 3077 3075 3075 3073 3072 3072 3072 3072 3073 3073 3075 3076 3078 3080
3106 3106 3106 3105 3105 3104 3102 3100 3097 3095 3092 3089 3086 3082 3079 3076 3074 3071 3068 3067 3066 3065 3065 3064 3064 3065 3065 3066 3067 3069 3070 3073
3103 3103 3103 3102 3101 3099 3097 3094 3091 3088 3085 3082 3078 3074 3071 3068 3065 3063 3060 3058 3057 3057 3056 3056 3057 3057 3057 3058 3059 3061 3062 3065
3101 3100 3099 3098 3096 3094 3091 3087 3084 3081 3078 3074 3069 3065 3061 3059 3056 3054 3052 3050 3048 3048 3047 3047 3047 3048 3049 3050 3051 3053 3055 3057
3096 3096 3095 3094 3091 3088 3084 3081 3078 3074 3069 3063 3059 3055 3052 3049 3047 3044 3042 3040 3038 3038 3037 3038 3039 3039 3040 3041 3042 3044 3047 3050
3094 3092 3090 3088 3085 3081 3078 3075 3071 3066 3061 3056 3051 3046 3041 3038 3036 3034 3031 3029 3027 3027 3027 3028 3029 3030 3030 3032 3034 3037 3039 3041
3090 3088 3085 3083 3079 3074 3070 3066 3060 3054 3049 3044 3038 3034 3030 3027 3024 3022 3020 3018 3017 3016 3016 3017 3019 3021 3021 3023 3027 3031 3029 3034
3087 3084 3081 3076 3072 3068 3063 3057 3051 3046 3039 3033 3027 3024 3019 3016 3013 3010 3008 3008 3006 3006 3006 3006 3008 3012 3013 3015 3017 3021 3024 3028
3083 3079 3076 3072 3067 3060 3054 3047 3040 3033 3026 3021 3016 3010 3007 3004 3001 2998 2996 2994 2994 2995 2996 2997 2999 3001 3005 3007 3010 3012 3015 3021
3078 3075 3070 3063 3057 3051 3043 3036 3030 3022 3017 3010 3004 2999 2994 2990 2987 2985 2984 2983 2983 2982 2983 2985 2987 2990 2995 2998 3001 3005 3008 3014
3074 3069 3063 3055 3049 3042 3034 3027 3019 3013 3007 2999 2993 2987 2982 2978 2974 2971 2969 2968 2969 2970 2970 2972 2975 2978 2983 2988 2991 2996 3001 3006
3068 3062 3056 3049 3041 3033 3026 3018 3010 3002 2995 2988 2982 2976 2971 2965 2961 2957 2955 2954 2953 2953 2955 2958 2962 2966 2971 2976 2982 2987 2991 2998